[[{"header":{"parameterUnit":"m.s-1","parameterCategory":1,"la1":30.2991,"la2":30.254,"lo1":-89.0895,"lo2":-89.0444,"dy":0.0017,"dx":0.0017,"nx":28,"ny":28,"refTime":"2024-02-05T03:00:00:Z","depth":0,"parameterNumber":2,"parameterNumberName":"U-component_of_WINDS"},"data":[0,0,0,0,0,0,0,0,0,0,0,0,0,0,0,0,0,0,0,0,0,0,0,0,0,0,0,0,0,0,0,0,0,0,0,0,0,0,0,0,0,0,0,0,0,0,0,0,0,0,0,0,0,0,0,0,0,0,-0.6102,-0.6102,0,-0.6072,-0.6071,-0.6071,-0.6026,-0.6026,-0.6025,-0.6024,-0.5994,-0.5994,-0.5994,0,0,0,0,0,0,0,0,0,0,0,0,0,-0.6122,-0.6122,-0.6102,-0.6102,-0.6101,-0.6072,-0.6071,-0.6071,-0.6027,-0.6026,-0.6025,-0.6024,-0.5994,-0.5994,-0.5994,0,0,0,0,0,0,0,0,0,0,0,0,0,-0.6105,-0.6122,-0.6102,-0.6076,-0.6073,-0.6072,-0.6071,-0.6071,-0.6027,-0.6026,-0.6024,-0.6023,-0.5994,-0.5994,-0.5994,-0.6017,0,0,-0.5993,-0.5993,0,0,0,0,0,0,0,0,-0.6106,-0.6104,-0.608,-0.6078,-0.6074,-0.6052,-0.6067,-0.6053,-0.6027,-0.6044,-0.6024,-0.6023,-0.6014,-0.6012,-0.6009,-0.6015,-0.6014,-0.5993,-0.5993,-0.5993,-0.5993,0,0,0,0,0,0,0,-0.6107,-0.6105,-0.609,-0.608,-0.6076,-0.6065,-0.6061,-0.6064,-0.6036,-0.6043,-0.6039,-0.6036,-0.6012,-0.6009,-0.6008,-0.6013,-0.5993,-0.5993,-0.5993,-0.5993,-0.6035,-0.6037,0,0,0,0,0,0,-0.6112,-0.6106,-0.6091,-0.6089,-0.6087,-0.6066,-0.6062,-0.606,-0.6036,-0.6031,-0.6037,-0.6034,-0.601,-0.6008,-0.6007,-0.6032,-0.5993,-0.5993,-0.5993,-0.6034,-0.6036,-0.6037,0,0,0,0,0,0,-0.6112,-0.6111,-0.6092,-0.6097,-0.6094,-0.6067,-0.6065,-0.606,-0.6057,-0.6032,-0.6027,-0.604,-0.6009,-0.6007,-0.6014,-0.603,-0.5993,-0.5993,-0.6033,-0.6035,-0.6036,-0.6082,0,0,0,0,0,0,-0.6113,-0.6111,-0.612,-0.6097,-0.6094,-0.6101,-0.6066,-0.606,-0.6057,-0.6053,-0.6033,-0.6028,-0.6008,-0.6015,-0.6014,-0.6029,-0.5993,-0.6031,-0.6034,-0.6036,-0.6079,-0.6085,-0.609,0,0,0,0,0,-0.6114,-0.6135,-0.6121,-0.6119,-0.6104,-0.6102,-0.6099,-0.6076,-0.6058,-0.6067,-0.605,-0.6029,-0.6028,-0.6016,-0.6015,-0.603,-0.603,-0.6033,-0.6036,-0.6076,-0.6084,-0.609,0,0,0,0,0,0,-0.6161,-0.6131,-0.6116,-0.6129,-0.6118,-0.6094,-0.6104,-0.6084,-0.6078,-0.6075,-0.6045,-0.6041,-0.6052,-0.6041,-0.6028,-0.605,-0.6026,-0.6028,-0.6057,-0.6064,-0.607,-0.6073,-0.5993,0,0,0,0,0,-0.6172,-0.6173,-0.6147,-0.6162,-0.6157,-0.6131,-0.613,-0.6112,-0.6099,-0.6095,-0.6079,-0.6068,-0.6065,-0.6064,-0.606,-0.6077,-0.6071,-0.6087,-0.6092,-0.6097,-0.61,-0.6108,-0.6114,-0.6046,-0.6046,-0.6046,0,0,-0.6197,-0.6181,-0.6183,-0.6171,-0.616,-0.6161,-0.6128,-0.6131,-0.6131,-0.6095,-0.6101,-0.6089,-0.6074,-0.6086,-0.6091,-0.6078,-0.6117,-0.61,-0.6105,-0.6105,-0.6111,-0.6118,-0.6124,-0.6048,-0.6047,-0.6047,0,0,-0.6243,-0.6231,-0.6241,-0.6231,-0.6215,-0.6197,-0.62,-0.6178,-0.6168,-0.6173,-0.6146,-0.6146,-0.6142,-0.6132,-0.6127,-0.6167,-0.6147,-0.6166,-0.6197,-0.6205,-0.621,-0.6215,-0.6229,-0.6235,-0.6169,-0.6169,-0.6169,0,-0.6276,-0.6277,-0.6249,-0.6254,-0.6249,-0.6215,-0.6225,-0.6216,-0.62,-0.6198,-0.6183,-0.6176,-0.6164,-0.6173,-0.6183,-0.6179,-0.6181,-0.617,-0.6211,-0.6216,-0.622,-0.6233,-0.6239,-0.6172,-0.6172,-0.6171,-0.6171,0,-0.6318,-0.6318,-0.6329,-0.6313,-0.6309,-0.6317,-0.6291,-0.629,-0.6272,-0.6256,-0.6261,-0.6245,-0.6237,-0.6237,-0.622,-0.6243,-0.6236,-0.6217,-0.6192,-0.6229,-0.6242,-0.6247,-0.6176,-0.6175,-0.6174,-0.6173,0,0,-0.6394,-0.6362,-0.6366,-0.6358,-0.6337,-0.6337,-0.6343,-0.6334,-0.6334,-0.6323,-0.6327,-0.6323,-0.6305,-0.6299,-0.628,-0.6287,-0.6319,-0.6266,-0.6266,-0.6277,-0.6344,-0.6359,-0.6366,-0.6305,-0.6306,-0.6307,-0.6345,0,-0.6436,-0.6444,-0.6419,-0.6433,-0.6433,-0.64,-0.6404,-0.6392,-0.6376,-0.6374,-0.6357,-0.6355,-0.6331,-0.6327,-0.6332,-0.6314,-0.6333,-0.6311,-0.6309,-0.6309,-0.6315,-0.6372,-0.6389,-0.6426,-0.635,-0.6351,-0.6351,0,-0.6487,-0.6478,-0.6492,-0.6469,-0.6468,-0.6473,-0.6463,-0.6461,-0.6445,-0.6433,-0.6426,-0.6404,-0.6407,-0.6382,-0.6386,-0.6372,-0.6369,-0.636,-0.6361,-0.6361,-0.6334,-0.6375,-0.6438,-0.6444,-0.6359,-0.6358,-0.6357,0,-0.6542,-0.6534,-0.6541,-0.6535,-0.6508,-0.6512,-0.6501,-0.6484,-0.648,-0.6471,-0.6468,-0.6459,-0.6455,-0.6448,-0.6424,-0.6408,-0.643,-0.6403,-0.6421,-0.6422,-0.6429,-0.6429,-0.6493,-0.6425,-0.6425,-0.6425,-0.6425,0,-0.6593,-0.6603,-0.6565,-0.657,-0.6579,-0.655,-0.656,-0.6546,-0.6531,-0.6532,-0.6502,-0.6504,-0.6471,-0.6468,-0.6449,-0.6455,-0.6453,-0.6444,-0.6439,-0.6447,-0.6449,-0.6446,-0.6443,-0.6427,-0.6426,-0.6426,-0.6426,0,-0.6657,-0.6632,-0.6637,-0.6611,-0.6604,-0.6613,-0.659,-0.6593,-0.6575,-0.6576,-0.6575,-0.6547,-0.6542,-0.6517,-0.6507,-0.6494,-0.6507,-0.6496,-0.6512,-0.6509,-0.6529,-0.6527,-0.6595,-0.6602,-0.6528,-0.6529,-0.653,0,-0.6691,-0.6698,-0.6672,-0.667,-0.666,-0.6658,-0.6654,-0.6624,-0.662,-0.6602,-0.6607,-0.66,-0.6593,-0.6587,-0.6566,-0.6558,-0.6547,-0.6571,-0.6546,-0.6554,-0.6548,-0.6549,-0.6549,-0.6577,-0.6578,-0.6579,-0.658,0,-0.6756,-0.6742,-0.6737,-0.6727,-0.6722,-0.6713,-0.6702,-0.6702,-0.6669,-0.6666,-0.6661,-0.6656,-0.6644,-0.6638,-0.6626,-0.6614,-0.6591,-0.6587,-0.6591,-0.66,-0.661,-0.6605,-0.6528,-0.6586,-0.6586,-0.6585,-0.6585,-0.6585,-0.6806,-0.6811,-0.6793,-0.6787,-0.6776,-0.6765,-0.6767,-0.6748,-0.6743,-0.6732,-0.6714,-0.6711,-0.6694,-0.6675,-0.6665,-0.6662,-0.6649,-0.6655,-0.6656,-0.6658,-0.6663,-0.6609,-0.6659,-0.6659,-0.6659,-0.6659,-0.6659,0,-0.687,-0.6856,-0.6851,-0.6836,-0.6832,-0.681,-0.6796,-0.6794,-0.6791,-0.6777,-0.677,-0.6764,-0.6757,-0.6734,-0.6724,-0.6726,-0.6716,-0.6725,-0.6725,-0.6723,-0.6674,-0.6672,-0.6734,-0.6734,-0.6734,-0.6734,-0.6734,-0.6734,-0.6903,-0.6909,-0.6893,-0.6892,-0.6878,-0.6875,-0.6869,-0.6859,-0.6848,-0.6842,-0.6835,-0.682,-0.6802,-0.6791,-0.6783,-0.6776,-0.6775,-0.6787,-0.6778,-0.6733,-0.6726,-0.6719,-0.6717,-0.6787,-0.6787,-0.6826,-0.6826,-0.6827]},{"header":{"parameterUnit":"m.s-1","parameterCategory":1,"la1":30.2991,"la2":30.254,"lo1":-89.0895,"lo2":-89.0444,"dy":0.0017,"dx":0.0017,"nx":28,"ny":28,"refTime":"2024-02-05T03:00:00:Z","depth":0,"parameterNumber":3,"parameterNumberName":"V-component_of_WINDS"},"data":[0,0,0,0,0,0,0,0,0,0,0,0,0,0,0,0,0,0,0,0,0,0,0,0,0,0,0,0,0,0,0,0,0,0,0,0,0,0,0,0,0,0,0,0,0,0,0,0,0,0,0,0,0,0,0,0,0,0,-4.6784,-4.6786,0,-4.6897,-4.6899,-4.69,-4.6838,-4.6835,-4.6832,-4.6829,-4.6944,-4.6949,-4.6955,0,0,0,0,0,0,0,0,0,0,0,0,0,-4.6515,-4.652,-4.6784,-4.6786,-4.6787,-4.6897,-4.6899,-4.69,-4.6838,-4.6834,-4.6831,-4.6827,-4.6942,-4.6949,-4.6956,0,0,0,0,0,0,0,0,0,0,0,0,0,-4.663,-4.6522,-4.6784,-4.6769,-4.6769,-4.6897,-4.6899,-4.6901,-4.6839,-4.6834,-4.683,-4.6825,-4.6939,-4.6948,-4.6957,-4.7105,0,0,-4.6984,-4.6988,0,0,0,0,0,0,0,0,-4.6624,-4.664,-4.677,-4.6771,-4.6771,-4.6849,-4.6846,-4.6969,-4.684,-4.6813,-4.6829,-4.6823,-4.6916,-4.6926,-4.6958,-4.711,-4.7115,-4.6985,-4.699,-4.6994,-4.6997,0,0,0,0,0,0,0,-4.6616,-4.6635,-4.6829,-4.6772,-4.6773,-4.6757,-4.6768,-4.6869,-4.6889,-4.6815,-4.681,-4.6825,-4.6915,-4.6949,-4.696,-4.7117,-4.6985,-4.6992,-4.6998,-4.7001,-4.7397,-4.7402,0,0,0,0,0,0,-4.6609,-4.6629,-4.6825,-4.6832,-4.6684,-4.6766,-4.6778,-4.6828,-4.6888,-4.6892,-4.6828,-4.6821,-4.6936,-4.695,-4.6964,-4.7142,-4.6994,-4.7002,-4.7007,-4.7392,-4.7398,-4.7404,0,0,0,0,0,0,-4.6603,-4.6627,-4.6821,-4.6729,-4.6753,-4.6775,-4.6832,-4.6833,-4.6867,-4.6898,-4.6901,-4.686,-4.6933,-4.6951,-4.707,-4.7145,-4.7006,-4.7014,-4.7386,-4.7394,-4.7401,-4.7498,0,0,0,0,0,0,-4.6596,-4.6625,-4.6682,-4.6731,-4.6758,-4.6926,-4.6837,-4.6839,-4.6883,-4.6875,-4.6928,-4.6933,-4.6931,-4.7057,-4.7079,-4.7155,-4.7021,-4.7379,-4.739,-4.7399,-4.7489,-4.7509,-4.7526,0,0,0,0,0,-4.6586,-4.6704,-4.6685,-4.6709,-4.6829,-4.693,-4.6946,-4.6941,-4.6889,-4.6946,-4.6966,-4.6931,-4.7133,-4.707,-4.7094,-4.7173,-4.7375,-4.7387,-4.7398,-4.748,-4.7505,-4.7525,0,0,0,0,0,0,-4.6663,-4.671,-4.669,-4.6827,-4.6875,-4.692,-4.6992,-4.6967,-4.7031,-4.702,-4.7012,-4.7025,-4.7149,-4.7173,-4.7102,-4.732,-4.7246,-4.7263,-4.73,-4.7323,-4.7341,-4.7333,-4.7029,0,0,0,0,0,-4.6696,-4.6774,-4.6811,-4.6929,-4.6954,-4.6969,-4.7013,-4.7006,-4.7055,-4.7075,-4.7103,-4.7153,-4.7227,-4.7276,-4.7346,-4.7491,-4.7503,-4.7558,-4.7576,-4.7591,-4.7606,-4.7686,-4.7711,-4.7442,-4.7442,-4.7442,0,0,-4.6764,-4.68,-4.685,-4.6945,-4.6982,-4.7063,-4.6987,-4.7076,-4.7136,-4.7088,-4.7203,-4.7226,-4.728,-4.7413,-4.7473,-4.7437,-4.7683,-4.7606,-4.7618,-4.7625,-4.77,-4.7725,-4.7748,-4.745,-4.7448,-4.7447,0,0,-4.6931,-4.6966,-4.7069,-4.7107,-4.7163,-4.7172,-4.7197,-4.7246,-4.7259,-4.7374,-4.734,-4.7411,-4.754,-4.758,-4.7618,-4.7801,-4.7771,-4.7824,-4.792,-4.7998,-4.8019,-4.8038,-4.8104,-4.8128,-4.7838,-4.7839,-4.7839,0,-4.701,-4.7131,-4.7124,-4.7217,-4.726,-4.722,-4.7324,-4.7362,-4.7438,-4.7469,-4.7427,-4.7588,-4.7621,-4.7764,-4.7809,-4.784,-4.7868,-4.7818,-4.8016,-4.8035,-4.8052,-4.8116,-4.814,-4.7845,-4.7844,-4.7843,-4.7843,0,-4.7225,-4.731,-4.7386,-4.7461,-4.7513,-4.7611,-4.7618,-4.7672,-4.766,-4.7673,-4.7791,-4.783,-4.7908,-4.7941,-4.793,-4.8083,-4.8058,-4.8017,-4.7942,-4.8084,-4.8144,-4.8168,-4.7853,-4.7851,-4.7849,-4.7848,0,0,-4.7444,-4.7514,-4.7543,-4.7577,-4.7636,-4.7702,-4.7797,-4.7874,-4.792,-4.7974,-4.8055,-4.8165,-4.8127,-4.8169,-4.8162,-4.823,-4.8374,-4.818,-4.8181,-4.8216,-4.8545,-4.8577,-4.8605,-4.8354,-4.8359,-4.8363,-4.8541,0,-4.7615,-4.7784,-4.778,-4.7937,-4.8015,-4.7979,-4.8063,-4.8109,-4.8124,-4.8193,-4.8209,-4.8288,-4.8231,-4.8257,-4.8322,-4.8343,-4.844,-4.8329,-4.843,-4.8434,-4.8419,-4.8636,-4.867,-4.8837,-4.8564,-4.8568,-4.8571,0,-4.7838,-4.79,-4.8065,-4.8114,-4.8146,-4.8222,-4.8292,-4.8358,-4.8409,-4.8416,-4.8464,-4.8446,-4.8544,-4.8466,-4.8601,-4.8526,-4.8566,-4.8583,-4.8589,-4.8599,-4.8512,-4.8653,-4.889,-4.8915,-4.8607,-4.8604,-4.8602,0,-4.7982,-4.8107,-4.8222,-4.8252,-4.8311,-4.8365,-4.8393,-4.8439,-4.8486,-4.8547,-4.8577,-4.8649,-4.8689,-4.8744,-4.8747,-4.869,-4.8884,-4.8805,-4.8892,-4.8892,-4.8935,-4.8933,-4.9183,-4.896,-4.8959,-4.8959,-4.8958,0,-4.8175,-4.8277,-4.8288,-4.8358,-4.8472,-4.8467,-4.858,-4.8601,-4.8643,-4.8718,-4.869,-4.8761,-4.876,-4.8831,-4.8834,-4.8946,-4.8963,-4.8971,-4.8971,-4.8975,-4.8974,-4.9002,-4.8991,-4.8966,-4.8964,-4.8963,-4.8962,0,-4.8356,-4.8367,-4.8489,-4.8536,-4.855,-4.8632,-4.8671,-4.8739,-4.8752,-4.8846,-4.8868,-4.8888,-4.8972,-4.8979,-4.9076,-4.9077,-4.9213,-4.9199,-4.9196,-4.9194,-4.9281,-4.9273,-4.9559,-4.9596,-4.9348,-4.935,-4.9352,0,-4.8478,-4.8556,-4.8611,-4.866,-4.869,-4.8768,-4.8815,-4.8814,-4.8864,-4.8929,-4.8989,-4.9069,-4.9133,-4.9268,-4.9291,-4.9365,-4.9354,-4.9449,-4.9365,-4.9366,-4.9357,-4.9352,-4.9361,-4.9465,-4.9468,-4.947,-4.9472,0,-4.8695,-4.8697,-4.8767,-4.884,-4.8897,-4.8954,-4.9007,-4.9048,-4.9052,-4.9111,-4.9196,-4.9246,-4.9345,-4.9425,-4.9498,-4.9525,-4.9501,-4.9498,-4.9522,-4.9527,-4.9523,-4.9528,-4.9242,-4.9492,-4.949,-4.9488,-4.9487,-4.9487,-4.8851,-4.892,-4.8969,-4.9048,-4.9088,-4.9139,-4.9205,-4.9226,-4.9297,-4.9378,-4.9372,-4.9466,-4.9516,-4.961,-4.9644,-4.9717,-4.9686,-4.972,-4.9729,-4.9738,-4.9748,-4.951,-4.973,-4.973,-4.9729,-4.9729,-4.9728,0,-4.9068,-4.9098,-4.9171,-4.9247,-4.9309,-4.928,-4.9337,-4.9391,-4.9475,-4.9523,-4.9588,-4.9686,-4.9764,-4.9793,-4.987,-4.9923,-4.9914,-4.9943,-4.994,-4.9947,-4.9771,-4.9743,-4.995,-4.995,-4.995,-4.995,-4.995,-4.995,-4.9188,-4.9302,-4.931,-4.9444,-4.9473,-4.9566,-4.9601,-4.9648,-4.9686,-4.9797,-4.9862,-4.9881,-4.9923,-5.0002,-5.0072,-5.0079,-5.0109,-5.0144,-5.0146,-4.9981,-4.9959,-4.9938,-4.9912,-5.015,-5.0151,-5.0316,-5.0317,-5.0318]}]]